Location: Unspecified
(49.2170°N, 0.0000°E)
Time: 18:46:02
(UTC+00:00)

Transit 2A - Pass Details

Date: 18 June 2019
Orbit: 594 x 965 km, 66.7° (Epoch: 16 July)

Event Time Altitude Azimuth Distance (km) Brightness Sun altitude
Rises 00:57:26 0° 194° (SSW) 3,611 - -16.3°
Reaches altitude 10° 01:00:02 10° 190° (S) 2,687 - -16.2°
Exits shadow 01:02:22 23° 180° (S) 1,912 7.5 -16.1°
Maximum altitude 01:06:07 50° 117° (ESE) 1,209 6.9 -16.0°
Drops below altitude 10° 01:12:09 10° 44° (NE) 2,664 9.8 -15.7°
Sets 01:14:43 0° 39° (NE) 3,579 10.8 -15.6°
